Tracking 25734 objects as of 26-May-2022
HD Live streaming from Space Station
objects crossing your sky now

SL-16 DEB

Track SL-16 DEB now!
10-day predictions


NORAD ID: 42242
Int'l Code: 1993-016CW
Perigee: 738.0 km
Apogee: 953.7 km
Inclination: 71.0 °
Period: 101.7 minutes
Semi major axis: 7216 km
RCS: Unknown
Launch date: March 26, 1993
Source: Commonwealth of Independent States (former USSR) (CIS)
Launch site: PLESETSK MISSILE AND SPACE COMPLEX (PKMTR)

Note: This is SATELLITE DEBRIS
aabbcc
Your satellite tracking list
Your tracking list is empty




NASA's NSSDC Master Catalog

Two Line Element Set (TLE):
1 42242U 93016CW  22132.44857741  .00005526  00000-0  25285-2 0  9995
2 42242  71.0041  58.9103 0149450  61.8485 299.7646 14.16062249905484
Source of the keplerian elements: AFSPC